Flag for South Africa Weather past 2 weeks in Cape Town, South Africa

Now
64 °F

Passing clouds.


Feels Like: 64 °F
Forecast: 58 / 64 °F
Wind: 9 mph from Northwest

Location: Cape Town International Airport

Current Time: May 23, 2015 at 5:20:28 PM

Latest Report: May 23, 2015 at 5:00 PM


Visibility: N/A

Pressure: 30.04 "Hg

Humidity: 83%

Dew point: 59 °F

Location of Cape TownLocation

Historic Weather in Cape Town — Graph

°F

Cape Town temperature yesterday

Maximum temperature yesterday: 84 °F (at 2:00 PM)
Minimum temperature yesterday: 48 °F (at 6:00 AM)
Average temperature yesterday: 65 °F

Past Weeks' High & Low Weather Summary

 TemperatureHumidityPressure
High84 °F (May 22, 2:00 PM)100% (May 13, 6:00 AM)30.27 "Hg (May 13, 6:00 AM)
Low45 °F (May 17, 7:00 AM)24% (May 22, 4:00 PM)29.86 "Hg (May 18, 3:00 AM)
Average61 °F76%30.06 "Hg
* Reported May 8 4:00 PM — May 23 4:00 PM, Cape Town, Weather by CustomWeather, © 2015

Note: Actual official high and low records may vary slightly from our data, if they occured in-between our weather recording intervals... More about our weather records

Advertising

Cape Town weather history for previous 24 hours

 ConditionsComfort  
Time TempWeatherWind HumidityBarometerVisibility
4:00 PM
Sat, May 23
64 °FPartly sunny.8 mph83%30.01 "HgN/A
3:00 PM66 °FPartly sunny.9 mph73%30.01 "HgN/A
2:00 PM64 °FPartly sunny.9 mph78%30.01 "HgN/A
1:00 PM63 °FBroken clouds.13 mph83%30.04 "HgN/A
12:00 PM64 °FBroken clouds.7 mph83%30.04 "HgN/A
11:00 AM64 °FLight rain. Scattered clouds.8 mph83%30.04 "HgN/A
10:00 AM63 °FBroken clouds.9 mph77%30.01 "HgN/A
9:00 AM63 °FPassing clouds.6 mph73%29.95 "HgN/A
8:00 AM63 °FPassing clouds.8 mph77%29.95 "HgN/A
7:00 AM63 °FSunny.9 mph73%29.89 "Hg10 mi
6:00 AM61 °FClear.10 mph72%29.89 "Hg10 mi
5:00 AM63 °FClear.10 mph59%29.86 "Hg10 mi
4:00 AM61 °FClear.10 mph59%29.89 "Hg10 mi
3:00 AM59 °FClear.9 mph55%29.89 "Hg10 mi
2:00 AM61 °FClear.9 mph52%29.89 "Hg10 mi
1:00 AM63 °FClear.9 mph49%29.89 "Hg10 mi
12:00 AM63 °FClear.8 mph49%29.92 "Hg10 mi
11:00 PM
Fri, May 22
64 °FClear.6 mph43%29.92 "Hg10 mi
10:00 PM66 °FClear.10 mph40%29.92 "Hg10 mi
9:00 PM66 °FClear.12 mph40%29.95 "Hg10 mi
8:00 PM66 °FClear.8 mph40%29.95 "Hg10 mi
7:00 PM68 °FClear.8 mph35%29.95 "Hg10 mi
6:00 PM70 °FClear.6 mph35%29.92 "Hg10 mi
5:00 PM77 °FClear.7 mph26%29.95 "Hg10 mi
Weather by CustomWeather, © 2015

See weather overviewHow to use our weather pages